カタログに戻る

COSMOS 1275 DEB

運用中PO
NORAD 12737·DEBRIS·🇷🇺 Russia

打ち上げ Jun 4, 1981 から Plesetsk Cosmodrome

Loading…

次のパス (今後24時間)

TLE

最新Source: Space-Track

元期: Sep 14, 2026, 20:39 UTC

1 12737U 81053CE  26257.86081183  .00000756  00000-0  73741-3 0  9997
2 12737  82.9821 211.5137 0144552 222.2479 165.4775 13.73697172239073

AllMySatでCOSMOS 1275 DEBをリアルタイム追跡

Download on the App Store